Location: York
(31.8935°S, 116.7682°E)
Time: 04:55:55
(UTC+08:00)

X-37B - Pass Details

Date: 19 May 2021
Orbit: 386 x 389 km, 45.0° (Epoch: 10 June)

Event Time Altitude Azimuth Distance (km) Brightness Sun altitude
Exits shadow 05:51:49 12° 197° (SSW) 1,337 3.0 -13.9°
Maximum altitude 05:53:41 17° 158° (SSE) 1,079 2.9 -13.5°
Drops below altitude 10° 05:55:55 10° 114° (ESE) 1,428 4.2 -13.0°
Sets 05:58:29 0° 93° (E) 2,280 6.0 -12.5°
